[[{"header":{"parameterUnit":"m.s-1","parameterCategory":1,"la1":30.2991,"la2":30.254,"lo1":-89.0895,"lo2":-89.0444,"dy":0.0017,"dx":0.0017,"nx":28,"ny":28,"refTime":"2025-08-24T09:00:00:Z","depth":0,"parameterNumber":2,"parameterNumberName":"U-component_of_WINDS"},"data":[0,0,0,0,0,0,0,0,0,0,0,0,0,0,0,0,0,0,0,0,0,0,0,0,0,0,0,0,0,0,0,0,0,0,0,0,0,0,0,0,0,0,0,0,0,0,0,0,0,0,0,0,0,0,0,0,0,0,-1.6684,-1.6685,0,-1.6733,-1.6733,-1.6734,-1.6709,-1.6708,-1.6707,-1.6706,-1.6751,-1.6753,-1.6756,0,0,0,0,0,0,0,0,0,0,0,0,0,-1.6566,-1.6568,-1.6684,-1.6685,-1.6685,-1.6733,-1.6733,-1.6734,-1.671,-1.6708,-1.6707,-1.6705,-1.675,-1.6753,-1.6756,0,0,0,0,0,0,0,0,0,0,0,0,0,-1.6616,-1.6569,-1.6684,-1.6679,-1.6679,-1.6733,-1.6733,-1.6734,-1.671,-1.6708,-1.6706,-1.6705,-1.6749,-1.6753,-1.6756,-1.6816,0,0,-1.6767,-1.6769,0,0,0,0,0,0,0,0,-1.6613,-1.6621,-1.6679,-1.668,-1.668,-1.6713,-1.6708,-1.6761,-1.6711,-1.6698,-1.6706,-1.6704,-1.674,-1.6744,-1.6757,-1.6818,-1.682,-1.6767,-1.6769,-1.6771,-1.6772,0,0,0,0,0,0,0,-1.661,-1.6618,-1.6703,-1.668,-1.668,-1.6673,-1.6678,-1.6718,-1.6729,-1.6699,-1.6697,-1.6704,-1.6739,-1.6754,-1.6758,-1.682,-1.6767,-1.677,-1.6773,-1.6774,-1.6932,-1.6934,0,0,0,0,0,0,-1.6607,-1.6616,-1.6702,-1.6705,-1.6641,-1.6677,-1.6682,-1.6704,-1.6728,-1.673,-1.6705,-1.6702,-1.6748,-1.6754,-1.6759,-1.683,-1.6771,-1.6774,-1.6776,-1.693,-1.6932,-1.6934,0,0,0,0,0,0,-1.6605,-1.6615,-1.67,-1.666,-1.667,-1.6681,-1.6706,-1.6706,-1.672,-1.6733,-1.6734,-1.6718,-1.6747,-1.6754,-1.6802,-1.6831,-1.6776,-1.6779,-1.6927,-1.693,-1.6933,-1.6971,0,0,0,0,0,0,-1.6602,-1.6615,-1.6638,-1.6661,-1.6672,-1.6743,-1.6707,-1.6709,-1.6727,-1.6724,-1.6745,-1.6747,-1.6746,-1.6797,-1.6806,-1.6835,-1.6782,-1.6925,-1.6929,-1.6932,-1.6968,-1.6975,-1.6982,0,0,0,0,0,-1.6598,-1.6646,-1.664,-1.665,-1.6702,-1.6745,-1.6751,-1.6751,-1.673,-1.6753,-1.6761,-1.6746,-1.6827,-1.6802,-1.6811,-1.6842,-1.6923,-1.6927,-1.6932,-1.6964,-1.6974,-1.6982,0,0,0,0,0,0,-1.6625,-1.6649,-1.6642,-1.67,-1.6721,-1.6741,-1.677,-1.6761,-1.6787,-1.6782,-1.6779,-1.6784,-1.6833,-1.6843,-1.6815,-1.6901,-1.6871,-1.6878,-1.6893,-1.6902,-1.6909,-1.6905,-1.6785,0,0,0,0,0,-1.6638,-1.6672,-1.6691,-1.674,-1.6751,-1.6759,-1.6777,-1.6775,-1.6796,-1.6804,-1.6816,-1.6835,-1.6865,-1.6884,-1.6912,-1.6969,-1.6973,-1.6995,-1.7003,-1.7008,-1.7014,-1.7044,-1.7053,-1.695,-1.6949,-1.6949,0,0,-1.6665,-1.6682,-1.6704,-1.6746,-1.6762,-1.6795,-1.6766,-1.6803,-1.6828,-1.6809,-1.6855,-1.6864,-1.6886,-1.6938,-1.6962,-1.6948,-1.7043,-1.7014,-1.7019,-1.7021,-1.7049,-1.7059,-1.7068,-1.6953,-1.6952,-1.6952,0,0,-1.6731,-1.6748,-1.6791,-1.6808,-1.6833,-1.6838,-1.6848,-1.687,-1.6876,-1.6922,-1.6909,-1.6937,-1.6989,-1.7004,-1.7019,-1.7092,-1.7079,-1.7101,-1.7138,-1.7167,-1.7175,-1.7183,-1.7207,-1.7216,-1.7107,-1.7107,-1.7107,0,-1.676,-1.6812,-1.6813,-1.6851,-1.687,-1.6857,-1.6899,-1.6915,-1.6947,-1.6959,-1.6943,-1.7007,-1.7021,-1.7076,-1.7094,-1.7107,-1.7117,-1.7098,-1.7175,-1.7182,-1.7188,-1.7211,-1.7221,-1.7109,-1.7109,-1.7109,-1.7108,0,-1.6846,-1.6882,-1.6914,-1.6947,-1.6969,-1.7009,-1.7014,-1.7036,-1.7033,-1.7039,-1.7086,-1.7102,-1.7132,-1.7146,-1.7142,-1.7201,-1.7191,-1.7175,-1.7145,-1.7201,-1.7222,-1.7231,-1.7113,-1.7112,-1.7111,-1.711,0,0,-1.6929,-1.6964,-1.6975,-1.6989,-1.7017,-1.7044,-1.7083,-1.7115,-1.7133,-1.7156,-1.7187,-1.7231,-1.7217,-1.7233,-1.7231,-1.7257,-1.7312,-1.7238,-1.7238,-1.725,-1.7376,-1.7386,-1.7397,-1.7305,-1.7306,-1.7308,-1.7374,0,-1.6995,-1.7065,-1.7067,-1.713,-1.7163,-1.7152,-1.7185,-1.7205,-1.7212,-1.724,-1.7247,-1.7278,-1.7257,-1.7267,-1.7292,-1.73,-1.7337,-1.7296,-1.7331,-1.7333,-1.7325,-1.7408,-1.742,-1.7481,-1.7382,-1.7384,-1.7385,0,-1.7081,-1.7109,-1.7176,-1.7199,-1.7212,-1.7243,-1.7272,-1.7299,-1.732,-1.7324,-1.7343,-1.7337,-1.7375,-1.7346,-1.7397,-1.7369,-1.7384,-1.739,-1.7393,-1.7394,-1.7361,-1.741,-1.7501,-1.7509,-1.7398,-1.7397,-1.7396,0,-1.7133,-1.7187,-1.7233,-1.7247,-1.7275,-1.7296,-1.7309,-1.7329,-1.7348,-1.7373,-1.7384,-1.7413,-1.7428,-1.745,-1.7451,-1.743,-1.7503,-1.7474,-1.7505,-1.7505,-1.7519,-1.7517,-1.7611,-1.7532,-1.7532,-1.7532,-1.7531,0,-1.7206,-1.7246,-1.7257,-1.7285,-1.7331,-1.7333,-1.7377,-1.7387,-1.7405,-1.7434,-1.7426,-1.7453,-1.7455,-1.7482,-1.7483,-1.7525,-1.7532,-1.7535,-1.7534,-1.7534,-1.7534,-1.7542,-1.7537,-1.7534,-1.7534,-1.7533,-1.7533,0,-1.727,-1.7279,-1.7329,-1.7352,-1.7359,-1.7391,-1.741,-1.7436,-1.7443,-1.748,-1.7489,-1.7499,-1.7531,-1.7535,-1.7572,-1.7573,-1.7623,-1.7619,-1.7616,-1.7614,-1.7644,-1.7641,-1.7745,-1.7758,-1.7672,-1.7673,-1.7674,0,-1.7314,-1.7346,-1.7373,-1.7393,-1.7407,-1.7439,-1.7459,-1.7462,-1.7482,-1.751,-1.7532,-1.7564,-1.7589,-1.764,-1.765,-1.7678,-1.7673,-1.7708,-1.7677,-1.7676,-1.7671,-1.7669,-1.7671,-1.7713,-1.7714,-1.7715,-1.7715,0,-1.7392,-1.7396,-1.7425,-1.7457,-1.7481,-1.7505,-1.7528,-1.7544,-1.755,-1.7573,-1.7607,-1.7627,-1.7665,-1.7696,-1.7723,-1.7734,-1.7725,-1.7725,-1.7733,-1.7733,-1.7729,-1.773,-1.763,-1.7722,-1.7721,-1.7721,-1.7721,-1.772,-1.7447,-1.7474,-1.7498,-1.7531,-1.7549,-1.7571,-1.7596,-1.7608,-1.7636,-1.7669,-1.7669,-1.7705,-1.7725,-1.7762,-1.7775,-1.7802,-1.779,-1.7803,-1.7806,-1.7808,-1.781,-1.7727,-1.7807,-1.7807,-1.7807,-1.7807,-1.7807,0,-1.7523,-1.7538,-1.7569,-1.7602,-1.7627,-1.762,-1.7644,-1.7666,-1.7698,-1.7719,-1.7745,-1.7782,-1.7812,-1.7825,-1.7854,-1.7873,-1.787,-1.788,-1.7878,-1.788,-1.782,-1.7809,-1.7883,-1.7883,-1.7883,-1.7883,-1.7883,-1.7883,-1.7565,-1.761,-1.7616,-1.767,-1.7684,-1.7721,-1.7736,-1.7755,-1.7772,-1.7815,-1.7841,-1.785,-1.7867,-1.7897,-1.7923,-1.7926,-1.7936,-1.7948,-1.7949,-1.7892,-1.7884,-1.7877,-1.7867,-1.7951,-1.7951,-1.8007,-1.8007,-1.8008]},{"header":{"parameterUnit":"m.s-1","parameterCategory":1,"la1":30.2991,"la2":30.254,"lo1":-89.0895,"lo2":-89.0444,"dy":0.0017,"dx":0.0017,"nx":28,"ny":28,"refTime":"2025-08-24T09:00:00:Z","depth":0,"parameterNumber":3,"parameterNumberName":"V-component_of_WINDS"},"data":[0,0,0,0,0,0,0,0,0,0,0,0,0,0,0,0,0,0,0,0,0,0,0,0,0,0,0,0,0,0,0,0,0,0,0,0,0,0,0,0,0,0,0,0,0,0,0,0,0,0,0,0,0,0,0,0,0,0,-3.4736,-3.4737,0,-3.4826,-3.4827,-3.4828,-3.4796,-3.4794,-3.4792,-3.479,-3.4879,-3.4883,-3.4887,0,0,0,0,0,0,0,0,0,0,0,0,0,-3.4532,-3.4536,-3.4736,-3.4737,-3.4738,-3.4826,-3.4827,-3.4829,-3.4796,-3.4793,-3.4791,-3.4789,-3.4877,-3.4882,-3.4888,0,0,0,0,0,0,0,0,0,0,0,0,0,-3.4621,-3.4537,-3.4736,-3.4733,-3.4733,-3.4826,-3.4827,-3.4829,-3.4796,-3.4793,-3.479,-3.4788,-3.4876,-3.4882,-3.4888,-3.4988,0,0,-3.4908,-3.4911,0,0,0,0,0,0,0,0,-3.4616,-3.4629,-3.4732,-3.4733,-3.4734,-3.4797,-3.4788,-3.4882,-3.4797,-3.4772,-3.479,-3.4786,-3.4854,-3.4862,-3.4885,-3.4992,-3.4996,-3.4908,-3.4912,-3.4915,-3.4917,0,0,0,0,0,0,0,-3.461,-3.4625,-3.4772,-3.4733,-3.4735,-3.4726,-3.4735,-3.4806,-3.4829,-3.4774,-3.4772,-3.4783,-3.4854,-3.4879,-3.4887,-3.4998,-3.4908,-3.4914,-3.4918,-3.492,-3.519,-3.5193,0,0,0,0,0,0,-3.4604,-3.462,-3.4769,-3.4774,-3.4666,-3.4732,-3.4742,-3.4779,-3.4828,-3.4833,-3.4786,-3.4782,-3.487,-3.488,-3.489,-3.501,-3.4915,-3.4921,-3.4925,-3.5187,-3.5191,-3.5195,0,0,0,0,0,0,-3.46,-3.4617,-3.4765,-3.4696,-3.4715,-3.4738,-3.4781,-3.4783,-3.4808,-3.4837,-3.484,-3.4808,-3.4868,-3.4881,-3.4964,-3.5012,-3.4924,-3.493,-3.5183,-3.5188,-3.5193,-3.525,0,0,0,0,0,0,-3.4594,-3.4616,-3.4655,-3.4698,-3.4718,-3.4839,-3.4784,-3.4787,-3.482,-3.4815,-3.4858,-3.4863,-3.4866,-3.4955,-3.497,-3.502,-3.4935,-3.5179,-3.5185,-3.5191,-3.5244,-3.5257,-3.5267,0,0,0,0,0,-3.4587,-3.4667,-3.4657,-3.4676,-3.4768,-3.4842,-3.4853,-3.4857,-3.4824,-3.4863,-3.4881,-3.4861,-3.5005,-3.4964,-3.4981,-3.5033,-3.5176,-3.5183,-3.5191,-3.5239,-3.5254,-3.5267,0,0,0,0,0,0,-3.4629,-3.4673,-3.4662,-3.4759,-3.4797,-3.4836,-3.4885,-3.4873,-3.492,-3.4914,-3.4915,-3.4925,-3.501,-3.503,-3.4983,-3.5131,-3.5085,-3.5096,-3.5116,-3.513,-3.5142,-3.5135,-3.494,0,0,0,0,0,-3.465,-3.4707,-3.4742,-3.4824,-3.4844,-3.4861,-3.4894,-3.4893,-3.4932,-3.4947,-3.4972,-3.5009,-3.5062,-3.5097,-3.5148,-3.5247,-3.5255,-3.5291,-3.5302,-3.5312,-3.5321,-3.5374,-3.539,-3.5219,-3.5219,-3.5219,0,0,-3.4693,-3.4724,-3.476,-3.4833,-3.4863,-3.4921,-3.4875,-3.4939,-3.4981,-3.4957,-3.5037,-3.5056,-3.5098,-3.5189,-3.523,-3.5207,-3.537,-3.5321,-3.5329,-3.5333,-3.5383,-3.5399,-3.5414,-3.5224,-3.5223,-3.5223,0,0,-3.4801,-3.4831,-3.4902,-3.4933,-3.4978,-3.4989,-3.5006,-3.5047,-3.5059,-3.514,-3.5122,-3.5173,-3.5265,-3.5295,-3.5323,-3.5442,-3.5426,-3.5459,-3.5519,-3.557,-3.5584,-3.5595,-3.5637,-3.5652,-3.5468,-3.5468,-3.5468,0,-3.4849,-3.4937,-3.494,-3.5006,-3.5038,-3.5019,-3.5091,-3.512,-3.5179,-3.5201,-3.5175,-3.529,-3.5317,-3.5414,-3.5444,-3.5467,-3.5485,-3.5453,-3.5582,-3.5594,-3.5605,-3.5645,-3.566,-3.5472,-3.5472,-3.5471,-3.5471,0,-3.4993,-3.5054,-3.5106,-3.5165,-3.5203,-3.5271,-3.5283,-3.5321,-3.5317,-3.5331,-3.5413,-3.5444,-3.5501,-3.5524,-3.552,-3.5621,-3.5605,-3.5581,-3.5534,-3.5625,-3.5662,-3.5677,-3.5477,-3.5476,-3.5475,-3.5474,0,0,-3.513,-3.519,-3.5209,-3.5235,-3.5283,-3.533,-3.5397,-3.5453,-3.5485,-3.5526,-3.5581,-3.566,-3.5637,-3.5669,-3.5668,-3.5713,-3.5805,-3.5683,-3.5684,-3.5704,-3.5917,-3.5934,-3.5952,-3.5794,-3.5797,-3.58,-3.5913,0,-3.5241,-3.536,-3.5365,-3.5472,-3.5528,-3.5511,-3.5569,-3.5604,-3.5619,-3.5667,-3.5683,-3.5738,-3.5704,-3.5723,-3.5767,-3.5785,-3.5848,-3.5777,-3.5845,-3.5847,-3.5834,-3.5972,-3.5991,-3.6096,-3.5928,-3.593,-3.5932,0,-3.5388,-3.5434,-3.5548,-3.5588,-3.5612,-3.5664,-3.5715,-3.5763,-3.5802,-3.5809,-3.5844,-3.5837,-3.5904,-3.5855,-3.5947,-3.5898,-3.5926,-3.5939,-3.5943,-3.5949,-3.5894,-3.5981,-3.613,-3.6146,-3.5955,-3.5953,-3.5952,0,-3.5475,-3.5567,-3.5646,-3.5669,-3.5718,-3.5755,-3.5777,-3.5813,-3.5846,-3.5891,-3.5913,-3.5964,-3.5992,-3.6032,-3.6038,-3.6003,-3.613,-3.6082,-3.6137,-3.6136,-3.6164,-3.6162,-3.6319,-3.6183,-3.6183,-3.6182,-3.6182,0,-3.5599,-3.5669,-3.5686,-3.5735,-3.5812,-3.5817,-3.5893,-3.5911,-3.5944,-3.5995,-3.5983,-3.6031,-3.6037,-3.6087,-3.6092,-3.6167,-3.6179,-3.6186,-3.6187,-3.6187,-3.6186,-3.6205,-3.6197,-3.6187,-3.6186,-3.6185,-3.6184,0,-3.571,-3.5725,-3.581,-3.585,-3.5861,-3.5916,-3.5949,-3.5995,-3.6008,-3.6073,-3.6089,-3.6109,-3.6166,-3.6177,-3.6245,-3.6248,-3.6337,-3.633,-3.6324,-3.6323,-3.6377,-3.6371,-3.6551,-3.6574,-3.6424,-3.6425,-3.6426,0,-3.5788,-3.5841,-3.5887,-3.5921,-3.5945,-3.6,-3.6034,-3.604,-3.6075,-3.6124,-3.6164,-3.622,-3.6266,-3.6358,-3.6378,-3.6429,-3.6423,-3.6483,-3.6431,-3.6429,-3.6423,-3.642,-3.6425,-3.6492,-3.6494,-3.6495,-3.6497,0,-3.5924,-3.5928,-3.5979,-3.6032,-3.6073,-3.6115,-3.6154,-3.6183,-3.6194,-3.6234,-3.6293,-3.6329,-3.6398,-3.6454,-3.6505,-3.6526,-3.6513,-3.6513,-3.6528,-3.6529,-3.6522,-3.6526,-3.635,-3.6508,-3.6507,-3.6506,-3.6506,-3.6505,-3.602,-3.6066,-3.6106,-3.6162,-3.6193,-3.623,-3.6275,-3.6294,-3.6344,-3.6401,-3.6402,-3.6466,-3.6503,-3.6571,-3.6595,-3.6645,-3.6625,-3.6648,-3.6653,-3.6658,-3.6663,-3.6515,-3.6654,-3.6654,-3.6653,-3.6653,-3.6653,0,-3.6155,-3.6179,-3.6231,-3.6287,-3.6331,-3.6317,-3.6359,-3.6397,-3.6454,-3.649,-3.6535,-3.6603,-3.6657,-3.6681,-3.6734,-3.6769,-3.6764,-3.6782,-3.6779,-3.6784,-3.6678,-3.6659,-3.6785,-3.6785,-3.6785,-3.6785,-3.6785,-3.6785,-3.623,-3.6308,-3.6317,-3.6409,-3.6433,-3.6497,-3.6522,-3.6556,-3.6585,-3.6661,-3.6706,-3.6722,-3.6753,-3.6808,-3.6857,-3.6862,-3.6882,-3.6903,-3.6906,-3.6805,-3.6792,-3.6779,-3.6761,-3.6907,-3.6908,-3.7008,-3.7009,-3.701]}]]